Regional Weather Roundup
Issued by NWS Austin/San Antonio, TX

Home | Current Version | Previous Version | Text Only | Print | Product List | Glossary On
Versions: 1 2 3 4 5 6 7 8 9 10 11 12 13 14 15 16 17 18 19 20 21 22 23 24 25 26 27 28 29 30 31 32 33 34 35 36 37 38 39 40 41 42 43 44 45 46 47 48 49 50
000
ASUS44 KEWX 190701
RWREWX
SOUTH TEXAS REGIONAL WEATHER ROUNDUP
NATIONAL WEATHER SERVICE AUSTIN/SAN ANTONIO TX
100 AM CST TUE FEB 19 2019

NOTE: "FAIR" INDICATED FEW OR NO CLOUDS BELOW 12,000 FEET WITH NO
SIGNIFICANT WEATHER AND/OR OBSTRUCTIONS TO VISIBILITY.

* - THESE STATIONS ARE NOT NWS OR FAA STATIONS...AND ARE NOT SUBJECT
    TO NWS AND FAA QUALITY CONTROL.

TXZ171-172-183>190-190800-
TEXAS HILL COUNTRY AND EDWARDS PLATEAU

CITY           SKY/WX    TMP DP  RH WIND       PRES   REMARKS
JUNCTION       CLOUDY    39  27  62 E10       30.14F WCI  32
*LLANO         PTCLDY    37  28  70 E3        30.21R
BURNET         PTCLDY    38  28  67 NE12      30.16S WCI  30
*HORSESHOE BAY PTCLDY    39  31  71 CALM      30.18S
*KERRVILLE     MOCLDY    38  30  71 NE3       30.13S
*FREDERICKSBRG MOCLDY    36  28  71 NE6       30.13F WCI  31
*ROCKSPRINGS   CLOUDY    43  30  61 E9        30.12S WCI  37
*BOERNE STAGE  CLOUDY    41  30  65 CALM      30.13F
*CASTROVILLE   CLOUDY    49  31  51 NE9       30.12F WCI  45
HONDO          CLOUDY    51  34  52 E12       30.10F
*UVALDE        CLOUDY    51  33  51 E13       30.10F
DEL RIO        CLOUDY    56  33  42 MISG      30.04F
LAUGHLIN AFB   CLOUDY    55  33  43 E15       30.05F
CARRIZO SPRGS  CLOUDY    55  34  44 E10       30.08S
*FAITH RANCH   CLOUDY    59  34  38 E8        30.06F
$$

TXZ173-191>194-202-209-217>225-228-190800-
CENTRAL AND SOUTH CENTRAL TEXAS

CITY           SKY/WX    TMP DP  RH WIND       PRES   REMARKS
GEORGETOWN     CLOUDY    41  31  67 N9        30.19F WCI  35
AUSTIN/BERGSTM CLOUDY    46  32  58 N15       30.15F WCI  40
AUSTIN/MABRY   CLOUDY    45  30  55 NE7       30.17F WCI  41
*AUSTIN/EXEC   CLOUDY    45  32  61 NE14      30.17S WCI  38
*LAGO VISTA    CLOUDY    40  24  52 NE10      30.14F WCI  34
SAN MARCOS     CLOUDY    46  33  60 N13       30.16S WCI  40
NEW BRAUNFELS  CLOUDY    46  32  58 NE12      30.13F WCI  41
RANDOLPH AFB   CLOUDY    46  32  57 NE10      30.12F WCI  41
PT SAN ANTONIO CLOUDY    48  32  54 NE14      30.09F WCI  43
SAN ANTONIO    CLOUDY    47  32  56 NE10      30.12F WCI  42
STINSON FIELD  CLOUDY    50  29  44 NE10      30.09F WCI  46
*LA GRANGE     CLOUDY    52  33  48 E6        30.12F
*GIDDINGS      CLOUDY    51  39  65 NE8       30.15F
*GONZALES      CLOUDY    48  37  63 N8        30.13F WCI  45
$$

TXZ163>164-176>182-195>201-210>213-226-227-235-190800-
SOUTHEAST TEXAS

CITY           SKY/WX    TMP DP  RH WIND       PRES   REMARKS
COLLEGE STN    CLOUDY    47  34  60 NE14      30.16F WCI  41
*BRYAN         CLOUDY    45  33  62 NE14      30.18F WCI  39
*CALDWELL      CLOUDY    47  33  59 NE10G17   30.17F WCI  42
*CROCKETT        N/A     41  30  65 NE8G16    30.23S WCI  36
*BRENHAM       CLOUDY    50  34  55 NE6       30.16S WCI  47
HUNTSVILLE     CLOUDY    46  31  55 NE9G17    30.17S WCI  41
CONROE         CLOUDY    48  33  56 NE7       30.16F WCI  45
HOUSTON BUSH   CLOUDY    50  35  56 NE10      30.14F WCI  46
HOUSTON HOBBY  CLOUDY    52  35  52 NE12      30.13S
*HOUSTON SW AP CLOUDY    52  38  58 NE12      30.12F
PEARLAND       CLOUDY    53  39  59 NE7       30.14S
HOUSTON HOOKS  CLOUDY    50  33  52 NE9       30.14F WCI  46
ELLINGTON FLD  CLOUDY    52  36  54 NE9       30.15S
SUGAR LAND     CLOUDY    54  35  48 NE10      30.11F
*HOUSTON EXEC  CLOUDY    50  34  53 NE12      30.14S WCI  46
*CLEVELAND MUN CLOUDY    48  34  57 NE3       30.17F
*WHARTON       CLOUDY    53  35  51 NE6       30.12S
*COLUMBUS      CLOUDY    51  30  44 NE8       30.14F
*EAGLE LAKE    CLOUDY    50  34  54 NE12      30.13S WCI  46
$$

TXZ214>216-236>238-190800-
THE UPPER TEXAS COAST

CITY           SKY/WX    TMP DP  RH WIND       PRES   REMARKS
*ORANGE        CLOUDY    51  39  64 NE10      30.16F
PORT ARTHUR    CLOUDY    53  35  50 NE13      30.12F
GALVESTON      CLOUDY    55  41  59 NE15      30.11F
ANGLETON       CLOUDY    55  41  59 NE12G22   30.10F
*BAY CITY      CLOUDY    56  45  67 NE14      30.09F
PALACIOS       CLOUDY    57  47  69 NE18G25   30.07F
$$

TXZ229>234-239>247-190800-
TEXAS COASTAL BEND AND RIO GRANDE PLAINS

CITY           SKY/WX    TMP DP  RH WIND       PRES   REMARKS
VICTORIA       CLOUDY    55  38  52 NE9       30.09F
*BEEVILLE      CLOUDY    61  35  37 NE5       30.08S
ROCKPORT       CLOUDY    57  48  72 E17G25    30.07F
*PORT ARANSAS  DRIZZLE   57  54  89 NE17      30.07F
*PORT LAVACA   CLOUDY    60  45  58 E15       30.08F
*INGLESIDE     CLOUDY    60  48  66 E17       30.06F
CORPUS CHRISTI LGT RAIN  58  48  69 E18G25    30.06F
CORPUS NAS     CLOUDY    59  55  87 NE18G25   30.05F
*ROBSTOWN      NOT AVBL
ALICE          CLOUDY    58  45  62 NE10G21   30.07F
KINGSVILLE NAS CLOUDY    59  49  69 NE13      30.06F
COTULLA        CLOUDY    54  35  48 E14       30.09F
LAREDO         CLOUDY    59  42  53 E13       30.06F
$$

TXZ248>255-190800-
DEEP SOUTH TEXAS

CITY           SKY/WX    TMP DP  RH WIND       PRES   REMARKS
BROWNSVILLE    LGT RAIN  59  59 100 NW7       29.99F
PORT ISABEL    LGT RAIN  60  59  96 N13       29.99F FOG
HARLINGEN      LGT RAIN  58  57  97 N9        30.01F FOG
*HEBBRONVILLE  CLOUDY    55  43  62 CALM      30.08F
MCALLEN        CLOUDY    58  55  90 N7        30.04F
*WESLACO       RAIN      55  53  95 N8        30.02F
FALFURRIAS     CLOUDY    57  49  74 NE7       30.05F
EDINBURG       CLOUDY    58  53  84 N9        30.04F
*ZAPATA        CLOUDY    58  41  52 E8        30.07F
$$

TXZ213>215-236>238-242>244-246-247-251-254-255-190800-
CMAN STATIONS

STATION/POSITION TIME  TEMP    WIND        PRES    WAVE
                       AIR SEA DIR/SP/G            HT/PER
                 (UTC) (F)     (DEG/KT/KT) (MB)    (FT/S)
SABINE PASS      0630   52 61   40/ 15/ 18 1021.7
SEA RIM ST PARK  0600   53      60/ 14/ 17 1020.5
NORTH JETTY/GLS  0630      57   70/ 26/ 29 1018.9
EAGLE POINT      0630   54 58   70/ 15/ 17 1020.2
MORGANS POINT    0630   52 59   30/  8/ 10 1020.3
PORT O`CONNOR    0630   56 58   70/ 20/ 23 1017.7
PORT ARANSAS     0600   58 59   40/ 22/ 24 1017.4
MALAQUITE BEACH  0630   57 61   30/ 20/ 24 1017.0
BAFFIN BAY       0630   57 60   20/ 15/ 20 1017.4
PORT ISABEL      0630   60 63  350/ 10/ 15 1015.5
$$



USA.gov is the U.S. government's official web portal to all federal, state and local government web resources and services.